Location: Ku?niki
(51.4449°N, 17.8974°E)
Time: 13:33:08
(UTC+00:00)

POLYITAN 1 - Pass Details

Date: 03 July 2022
Orbit: 586 x 605 km, 98.0° (Epoch: 17 August)

Event Time Altitude Azimuth Distance (km) Brightness Sun altitude
Rises 01:34:55 0° 7° (N) 2,863 ? -7.5°
Reaches altitude 10° 01:37:13 10° 359° (N) 1,958 ? -7.3°
Maximum altitude 01:41:04 34° 294° (WNW) 998 ? -6.9°
Drops below altitude 10° 01:44:54 10° 229° (SW) 1,952 ? -6.5°
Enters shadow 01:45:21 - 227° (SW) 2,118 ? -6.5°
